Flag for Canada Weather past 2 weeks in Kings County, Nova Scotia, Canada

Now
63 °F

Mild.


Feels Like: 63 °F
Forecast: 61 / 75 °F
Wind: 2 mph from West

Location: McNabs Island - AUT

Current Time: Jul 25, 2014 at 1:11:08 AM

Latest Report: Jul 25, 2014 at 12:00 AM


Visibility: N/A

Pressure: 29.76 "Hg

Humidity: 89%

Dew point: 60 °F

Location of Kings CountyLocation

Historic Weather in Kings County — Graph

°F

Kings County temperature yesterday

Maximum temperature yesterday: 67 °F (at 6:00 PM)
Minimum temperature yesterday: 59 °F (at 8:00 PM)
Average temperature yesterday: 63 °F

Past Weeks' High & Low Weather Summary

 TemperatureHumidityPressure
High76 °F (Jul 19, 12:00 PM)100% (Jul 10, 1:00 PM)30.28 "Hg (Jul 10, 1:00 PM)
Low51 °F (Jul 13, 6:00 AM)11% (Jul 18, 9:00 AM)29.75 "Hg (Jul 24, 6:00 PM)
Average63 °F81%30.05 "Hg
* Reported Midnight between Jul 9 and Jul 10 — Midnight between Jul 24 and Jul 25, Kings County, Weather by CustomWeather, © 2014

Note: Actual official high and low records may vary slightly from our data, if they occured in-between our weather recording intervals... More about our weather records

Advertising

Kings County weather history for July 13, 2014

 ConditionsComfort  
Time TempWeatherWind HumidityBarometerVisibility
12:00 AM
Jul 13
57 °FCool.2 mph80%30.15 "HgN/A
1:00 AM54 °FCool.1 mph88%30.16 "HgN/A
2:00 AM54 °FCool.1 mph87%30.14 "HgN/A
3:00 AM53 °FCool.No wind89%30.14 "HgN/A
4:00 AM52 °FCool.1 mph91%30.13 "HgN/A
5:00 AM52 °FCool.2 mph91%30.13 "HgN/A
6:00 AM51 °FCool.1 mph93%30.13 "HgN/A
7:00 AM57 °FCool.2 mph84%30.14 "HgN/A
8:00 AM57 °FCool.1 mph82%30.14 "HgN/A
9:00 AM61 °FCool.2 mph77%30.15 "HgN/A
10:00 AM66 °FMild.6 mph73%30.14 "HgN/A
11:00 AM73 °FMild.9 mph55%30.13 "HgN/A
12:00 PM72 °FMild.16 mph51%30.12 "HgN/A
1:00 PM73 °FMild.17 mph50%30.11 "HgN/A
2:00 PM71 °FMild.20 mph49%30.10 "HgN/A
3:00 PM70 °FMild.18 mph52%30.09 "HgN/A
4:00 PM71 °FMild.20 mph50%30.08 "HgN/A
5:00 PM67 °FMild.24 mph55%30.08 "HgN/A
6:00 PM65 °FMild.21 mph57%30.07 "HgN/A
7:00 PM64 °FMild.20 mph65%30.07 "HgN/A
8:00 PM63 °FMild.21 mph64%30.06 "HgN/A
9:00 PM63 °FMild.18 mph63%30.06 "HgN/A
10:00 PM62 °FCool.17 mph65%30.06 "HgN/A
11:00 PM60 °FCool.10 mph70%30.07 "HgN/A
Weather by CustomWeather, © 2014

See weather overviewHow to use our weather pages